Location: Ariel
(45.9570°N, 122.5700°W)
Time: 06:33:42
(UTC-07:00)

Explorer 7 - Visible Passes

Search period start: 23 July 2019 00:00
Search period end: 02 August 2019 00:00
Orbit: 485 x 680 km, 50.3° (Epoch: 23 July)

Date Brightness Start Highest point End Pass type
(mag) Time Alt. Az. Time Alt. Az. Time Alt. Az.
23 Jul 7.7 00:37:08 10° W 00:40:44 43° N 00:44:23 10° ENE visible
23 Jul 7.3 02:17:55 10° WNW 02:21:39 54° NNE 02:25:27 10° E visible
23 Jul 6.9 03:58:27 10° WNW 04:02:07 45° SSW 04:05:56 10° SE visible
23 Jul 7.5 21:21:33 10° SSW 21:24:53 28° SE 21:28:07 10° E visible
23 Jul 6.8 23:01:20 10° WSW 23:05:07 71° NNW 23:08:53 10° ENE visible
24 Jul 7.8 00:42:21 10° WNW 00:45:57 41° N 00:49:34 10° ENE visible
24 Jul 6.8 02:23:00 10° WNW 02:26:46 69° NNE 02:30:39 10° ESE visible
24 Jul 7.4 04:03:42 10° W 04:07:04 30° SW 04:10:33 10° SSE visible
24 Jul 7.0 21:26:09 10° SW 21:29:49 43° SE 21:33:24 10° ENE visible
24 Jul 7.2 23:06:31 10° W 23:10:16 55° NNW 23:13:58 10° ENE visible
25 Jul 7.7 00:47:32 10° WNW 00:51:09 43° N 00:53:32 19° ENE visible
25 Jul 8.2 02:28:05 10° WNW 02:29:42 24° WNW 02:29:42 24° WNW visible
25 Jul 6.6 21:30:59 10° SW 21:34:49 65° SSE 21:38:33 10° ENE visible
25 Jul 7.6 23:11:45 10° W 23:15:26 46° N 23:19:05 10° ENE visible
26 Jul 7.5 00:52:40 10° WNW 00:56:20 48° N 00:56:48 45° NE visible
26 Jul 6.6 21:36:00 10° WSW 21:39:52 87° NNW 21:43:39 10° ENE visible
26 Jul 7.8 23:17:00 10° WNW 23:20:37 42° N 23:24:14 10° ENE visible
27 Jul 7.5 00:57:46 10° WNW 01:00:45 47° NNW 01:00:45 47° NNW visible
27 Jul 7.0 21:41:08 10° WSW 21:44:58 65° NNW 21:48:44 10° ENE visible
27 Jul 7.8 23:22:13 10° WNW 23:25:49 41° N 23:28:38 15° ENE visible
28 Jul 8.1 01:02:51 10° WNW 01:04:56 31° WNW 01:04:56 31° WNW visible
28 Jul 7.4 21:46:20 10° W 21:50:07 52° NNW 21:53:49 10° ENE visible
28 Jul 7.6 23:27:22 10° WNW 23:31:01 44° N 23:32:55 24° ENE visible
29 Jul 8.7 01:07:56 10° WNW 01:09:12 20° WNW 01:09:12 20° WNW visible
29 Jul 7.7 21:51:35 10° W 21:55:18 45° N 21:58:56 10° ENE visible
29 Jul 7.3 23:32:30 10° WNW 23:36:12 51° NNE 23:37:15 38° ENE visible
30 Jul 9.2 01:13:04 10° WNW 01:13:32 13° WNW 01:13:32 13° WNW visible
30 Jul 7.8 21:56:49 10° WNW 22:00:29 42° N 22:04:06 10° ENE visible
30 Jul 6.8 23:37:35 10° WNW 23:41:21 63° NNE 23:41:37 61° NE visible
31 Jul 7.7 22:02:01 10° WNW 22:05:41 42° N 22:09:18 10° ENE visible
31 Jul 6.7 23:42:40 10° WNW 23:46:02 69° NW 23:46:02 69° NW visible
01 Aug 7.5 22:07:10 10° WNW 22:10:53 46° N 22:14:12 12° E visible
01 Aug 7.4 23:47:45 10° WNW 23:50:30 44° W 23:50:30 44° W visible
